This demonstration page uses our WeatherBlox Daily Observations layout. Learn more.

Left ArrowRight Arrow

Hourly Observations for June 27, 2018

Temp ( °F °C ) Dew Point ( °F °C ) Humidity (%) Winds ( mph kmh ) Pressure ( in mb ) Visibility ( mi km ) Precip ( " mm )
12:54 am 00:54 Clear 68 20 65 18.3 90 90 S 6 9 29.85 1011 10 16 0.00 0.03
1:54 am 01:54 Clear 70 21.1 65 18.3 84 84 Calm 29.85 1011 10 16 0.00 0.00
2:54 am 02:54 Clear 65 18.3 63 17.2 93 93 N 8 13 29.84 1011 10 16 0.00 0.00
3:54 am 03:54 Clear 65 18.3 63 17.2 93 93 Calm 29.84 1010 10 16 0.00 0.00
4:54 am 04:54 Clear 63 17.2 61 16.1 93 93 Calm 29.83 1010 10 16 0.00 0.00
5:54 am 05:54 Clear 64 17.8 62 16.7 93 93 WNW 3 6 29.82 1010 10 16 0.00 0.00
6:54 am 06:54 Sunny with Mist and Fog 65 18.3 63 17.2 93 93 Calm 29.83 1010 6 10 0.00 0.00
7:54 am 07:54 Sunny 71 21.7 66 18.9 84 84 Calm 29.81 1010 9 14 0.00 0.00
8:54 am 08:54 Sunny 76 24.4 68 20 77 77 NNW 3 6 29.85 1011 10 16 0.00 0.03
9:54 am 09:54 Sunny 81 27.2 69 20.6 67 67 E 10 17 29.86 1011 10 16 0.00 0.00
10:54 am 10:54 Sunny 83 28.3 68 20 61 61 ESE 10 17 29.85 1011 10 16 0.00 0.00
11:20 am 11:20 Hazy 84 28.9 67 19.4 57 57 E 10 17 29.83 1010 1 2 0.00 0.00
11:27 am 11:27 Sunny 84 28.9 68 20 59 59 E 8 13 29.83 1010 10 16 0.00 0.00
11:54 am 11:54 Sunny 85 29.4 67 19.4 55 55 ESE 10 17 29.84 1011 10 16 0.00 0.00
12:54 pm 12:54 Sunny 87 30.6 69 20.6 55 55 ESE 14 22 29.83 1010 10 16 0.00 0.00
1:54 pm 13:54 Sunny 87 30.6 69 20.6 55 55 ESE 14 22 29.81 1010 10 16 0.00 0.00
2:54 pm 14:54 Sunny 88 31.1 66 18.9 48 48 ESE 10 17 29.80 1009 10 16 0.00 0.00
3:54 pm 15:54 Sunny 89 31.7 67 19.4 48 48 SE 13 20 29.79 1009 10 16 0.00 0.00
4:54 pm 16:54 Sunny 90 32.2 69 20.6 50 50 SSE 10 17 29.79 1009 10 16 0.00 0.00
5:54 pm 17:54 Sunny 89 31.7 69 20.6 52 52 S 5 7 29.79 1009 10 16 0.00 0.00
6:54 pm 18:54 Mostly Cloudy 87 30.6 70 21.1 57 57 ESE 8 13 29.80 1009 10 16 0.00 0.00
7:54 pm 19:54 Mostly Cloudy 86 30 70 21.1 59 59 E 8 13 29.80 1009 10 16 0.00 0.00
8:54 pm 20:54 Sunny 84 28.9 70 21.1 63 63 E 8 13 29.80 1009 10 16 0.00 0.00
9:54 pm 21:54 Cloudy 83 28.3 71 21.7 67 67 E 10 17 29.80 1009 10 16 0.00 0.00
10:54 pm 22:54 Cloudy 82 27.8 70 21.1 67 67 E 9 15 29.81 1010 10 16 0.00 0.00
11:54 pm 23:54 Cloudy 81 27.2 71 21.7 72 72 E 6 9 29.81 1010 10 16 0.00 0.00

Powered by AerisWeather